Погода в Оханске

Погода в Оханске : погода сейчас, прогноз погоды и архив. Всё, что Вы хотите узнать о погоде в Оханске!

Поиск расширенной информации на нашем сайте:

Другие новости

Новости СМИ2

Главная страница сайта

Новости сайта

03.07.2017

Напоминаем, что на нашем специализированном сайте Метеоцентр.Азия вы можете получить высокодетализированные автоматические прогнозы погоды по пунктам России, СНГ и мира в авиационном формате (включающие направление и скорость ветра, видимость, явления погоды, количество и форму облачности, нижнюю и верхнюю границу облачности).

Рекомендуем: Детский трикотаж оптом из иваново valeriya-ivanovo.ru.

Погода в Оханске - сегодня

Время (UTC), дата Ветер
(°,м/с) 
Видим.   Явления Облачность Т
(°С)
Тd
(°С)
f(%) Тe
(°С)
Pmin
(гПа)
dP
(гПа)
Po
(мм)
O2
(г/м3)
Тmin Tmax R s Состояние
почвы
15 09.12.17 320 (СЗ) 20000 м    ясно 
-10.7 -12.7 85 -14  1017.1  0.2  747  314    -6.9  0.2     
18 09.12.17 330 (СЗ) 20000 м    10/10 2000 м 
[Ns]
-12.3 -14.2 86 -16  1018.1  0.8  747  317           
21 09.12.17 320 (СЗ) 4000 м  слаб. снег  10/10 2000 м 
[Ns]
-11.5 -13.6 84 -15  1018.4  0.3  748  316           
00 10.12.17 310 (СЗ) 20000 м  {снег}  ясно 
-14 -16.1 84 -16  1019.9  1.3  749  319           
03 10.12.17 330 (СЗ) 20000 м    ясно 
-15 -17.3 83 -19  1021.4  1.4  750  321  -15    0.0  10  равномерный
сухой снег
100% 
06 10.12.17 330 (СЗ) 20000 м    ясно 
-16 -18.5 81 -21  1023.1  1.6  751  323  -16         
09 10.12.17 320 (СЗ) 20000 м    ясно 
-15.1 -18.1 78 -17  1024.1  1.1  752  322           
12 10.12.17 300 (СЗ) 20000 м    ясно 
-16.3 -18.8 81 -16  1025.7  1.4  753  324           
15 10.12.17 330 (СЗ) 20000 м    ясно 
-17.9 -20.1 83 -20  1027.4  1.5  754  327    -14.9       
18 10.12.17 тихо ()   20000 м    ясно 
-19.1 -21.5 81 -19  1028.8  1.2  755  329           
21 10.12.17 240 (ЮЗ) 20000 м    ясно 
-21 -23.7 79 -21  1029.9  0.9  756  332           
00 11.12.17 240 (ЮЗ) 20000 м    ясно 
-22.3 -25.2 77 -23  1031.2  1.2  756  334           
03 11.12.17 110 (В) 20000 м    8/0 верхняя 
[Ci sp]
-22.7 -25.8 76 -23  1032.1  0.8  757  334  -23.3      10  равномерный
сухой снег
100% 
06 11.12.17 150 (ЮВ) 20000 м    8/0 верхняя 
[Ci]
-21.6 -24.6 77 -22  1033.2  1.2  758  333           
09 11.12.17 200 (Ю) 20000 м    3/0 верхняя 
[Ci fib]
-19.2 -22.1 78 -19  1033.3  0.3  758  330           
12 11.12.17 110 (В) 20000 м    3/0 верхняя 
[Ci fib]
-19.9 -22.6 79 -20  1033.8  0.5  759  331           
15 11.12.17 120 (ЮВ) 20000 м    ясно 
-21.4 -24.3 77 -22  1034.1  0.1  759  333    -17       
18 11.12.17 150 (ЮВ) 20000 м    ясно 
-22.3 -25.4 76 -23  1034.1  0.1  759  335           
21 11.12.17 160 (Ю) 20000 м    ясно 
-22.6 -25.6 76 -26  1034  0.1  758  335           
00 12.12.17 100 (В) 20000 м    ясно 
-23 -26.2 75 -23  1033.6  -0.4  758  335           
03 12.12.17 220 (ЮЗ) 20000 м    ясно 
-23.2 -26.4 75 -24  1033.3  -0.4  758  336  -23.6      10  равномерный
сухой снег
100% 
06 12.12.17 190 (Ю) 10 км  слаб. снег  10/10 2000 м 
[Ns]
-20.2 -23.1 78 -20  1033.5  0.5  758  332  -23.7         
09 12.12.17 тихо ()   10 км  слаб. снег  10/10 2000 м 
[Ns]
-14.6 -16.9 83 -15  1032.8  -0.2  758  324           
12 12.12.17 210 (ЮЗ) 10 км  {снег}  10/10 2000 м 
[Ns]
-12.5 -14.6 84 -12  1032.8  0.2  758  321           
15 12.12.17 140 (ЮВ) 20000 м    10/10 2000 м 
[Ac As]
-11.1 -13 86 -11  1033.3  0.7  759  320    -10.7  0.2     
Время (UTC), дата Ветер
(°,м/с) 
Видим.   Явления Облачность Т
(°С)
Тd
(°С)
f(%) Тe
(°С)
Pmin
(гПа)
dP
(гПа)
Po
(мм)
O2
(г/м3)
Тmin Tmax R s Состояние
почвы

Для получения пояснительной информации подведите курсор к названию столбца.

ПОГОДА в Оханске - архив

Всё, что Вы хотите узнать о погоде в Оханске - удобно и подробно!

Выберите нужную дату (начиная с 1 января 2015* года) и нажмите кнопку "Найти".
Будут отображены архивные сводки погоды по пункту Оханск, начиная с указанной даты.


Отображать данные в формате CSV (для использования в таблицах Excel)


Внимание! Наш архив погоды предназначен исключительно для личного некоммерческого использования в познавательных целях. Если Вам необходимы официальные справки о состоянии погоды (для производственных, юридических, коммерческих и т.п. целей), обращайтесь в органы Росгидромета.

*Примечание: данная дата относится к архиву по метеостанциям СССР (Россия, СНГ, Балтия).
Архив по метеостанциям Зарубежной Европы и Азии (кроме Китая) хранится 10 дней, по другим регионам земного шара (Китай, Африка, Америка, Австралия, Океания) - 1 день.

Оханск - район местоположения метеостанции


Название, широта, долгота, высота метеостанции:
Оханск 57.7°ш. 55.4°д. 163 м над ур. моря [Российская Федерация]

Дополнительная информация

В oтличие oт бoльшинства пoгoдных сайтoв мы публикуем пoдрoбную метеoинфoрмацию в детальнoм прoфессиoнальнoм фoрмате.

Характеристики температуры и влажнoсти вoздуха измеряются на высoте 2 м в тени вдали oт зданий и деревьев.
Скoрoсть ветра измеряется на высoте 10 м (на урoвне рoста челoвека скoрoсть ветра ниже в 1.5-2 раза). Если метеoстанция нахoдится в гoрoде или в лесу, тo скoрoсть ветра занижена на 2-4 м/с пo сравнению с oткрытым местoм. Скoрoсть ветра над акватoриями крупных рек и oзёр, а также на вершинах хoлмoв на 2-5 м/с выше, чем в oбычных услoвиях.
Атмoсфернoе давление в разных тoчках местнoсти мoжет значительнo oтличаться oт давления на метеoстанции, в зависимoсти oт услoвий рельефа (при пoдъёме на 10 м давление пoнижается примернo на 1 мм рт.ст.).